Theta_e
336 337 337 334 333 334 336 331 329 330 333 334 334 334 333 332 329 329 332 333 334 335 337 337 336 336 335 334 331 329 329 327 327 327 328 327 327 326 325 325 324 324 324
337 337 335 333 334 334 333 332 331 328 331 333 334 333 332 330 328 322 326 330 333 333 334 335 335 333 331 331 329 326 325 324 324 322 321 325 326 325 324 323 323 323 323
337 336 335 332 331 331 332 334 331 330 329 332 333 332 331 331 329 328 324 326 330 331 331 332 332 331 329 328 329 325 325 324 323 321 320 321 325 325 324 323 324 323 323
337 336 335 331 329 327 327 329 330 332 329 330 331 331 331 329 329 329 328 326 327 330 330 330 330 327 325 325 326 326 325 324 322 322 320 319 319 324 323 323 323 323 323
337 335 333 330 330 330 329 326 327 332 329 329 331 329 327 327 327 326 326 326 327 327 328 329 326 322 323 323 323 324 324 324 323 322 321 321 319 323 322 324 321 320 321
337 337 333 331 331 331 330 328 327 331 331 327 329 331 329 327 324 322 323 324 324 327 327 324 321 322 323 325 323 324 325 323 322 322 322 321 321 322 321 322 321 318 322
336 336 336 333 331 332 331 329 328 330 330 331 328 329 328 327 325 323 322 324 326 326 326 324 322 321 323 326 325 324 322 323 322 322 322 322 321 323 321 319 320 318 320
335 335 336 335 332 331 331 330 330 329 328 331 332 330 328 328 326 325 324 322 323 324 324 323 321 319 321 322 325 324 322 321 320 321 322 322 321 323 323 320 317 318 319
336 336 336 335 335 332 332 331 331 330 330 329 328 330 331 329 327 325 324 323 321 320 322 322 320 319 318 321 321 322 323 322 321 320 321 320 322 323 325 323 320 319 320
337 336 335 334 335 334 332 332 332 331 330 330 330 329 327 329 330 327 325 324 323 323 322 322 322 321 319 317 318 319 320 320 320 319 318 318 321 321 326 325 323 321 320
336 336 335 335 334 334 334 333 332 332 332 331 331 329 328 327 330 330 327 325 324 324 324 323 323 323 322 322 321 318 316 316 318 317 316 316 318 321 325 327 325 323 322
336 336 335 335 334 334 334 333 333 333 333 332 333 333 330 328 327 328 329 328 326 326 325 324 324 324 324 323 323 322 321 320 317 313 317 319 317 319 323 326 326 325 324
336 336 336 335 335 334 334 334 333 334 332 331 331 331 331 330 329 328 327 327 327 327 327 327 326 326 325 325 324 323 323 322 321 315 315 318 319 320 321 326 327 327 326
337 336 336 336 335 335 335 335 335 334 333 332 331 331 330 330 329 329 330 330 330 328 327 327 327 327 326 326 325 324 324 324 323 323 323 322 321 320 319 323 325 325 326
336 336 336 336 336 335 335 335 335 335 334 333 332 331 330 330 330 329 328 328 328 328 328 329 328 327 327 326 326 326 325 325 325 324 324 324 323 323 323 322 324 325 325
335 335 336 336 336 335 335 335 335 334 334 334 334 333 332 332 331 330 329 328 327 328 328 328 327 327 327 326 326 326 325 325 325 325 325 325 325 325 324 323 323 325 325
335 335 335 335 336 336 336 335 335 335 335 335 334 334 333 333 332 330 330 329 329 328 328 327 327 326 325 325 325 325 325 324 325 325 325 325 325 325 324 324 324 323 324
329 332 331 327 331 334 332 330 325 322 326 331 334 335 335 334 334 329 330 331 330 329 327 327 327 328 326 325 325 324 324 324 325 324 325 326 327 326 326 325 325 324 324
321 320 319 318 318 317 316 315 315 315 316 319 323 328 332 334 334 331 330 329 331 330 329 327 328 328 328 328 328 328 329 329 329 328 327 327 326 326 326 326 324 323 323
316 316 316 316 316 315 315 314 313 313 314 315 318 321 323 326 330 333 332 331 331 328 326 325 326 327 329 329 328 327 325 326 325 325 326 326 326 325 325 324 323 323 323
315 314 315 315 315 314 313 313 313 314 314 316 317 318 321 325 328 331 330 330 325 324 323 322 324 325 326 325 326 324 324 324 324 324 324 324 324 324 323 323 322 322 322
314 314 313 314 313 313 313 313 315 316 320 321 322 323 324 327 330 330 329 327 325 322 322 323 323 324 325 325 325 325 323 322 323 323 323 323 323 323 321 321 321 321 320
312 312 312 312 312 312 312 314 317 316 321 322 323 324 325 327 328 328 326 324 323 321 322 323 322 322 323 322 322 324 323 323 320 322 322 323 322 321 319 319 319 318 318
311 311 311 311 310 310 312 316 318 317 319 320 320 320 321 322 323 322 321 321 320 321 321 320 320 320 320 321 321 321 322 323 322 321 321 321 320 318 317 317 315 313 311
310 309 309 308 308 310 313 317 318 317 318 317 315 314 315 315 315 316 318 318 318 318 317 317 316 318 317 318 318 319 321 321 321 321 321 318 316 316 314 312 309 304 300
308 307 307 306 307 309 312 316 317 316 315 312 310 310 310 310 311 311 312 312 312 312 312 311 310 310 311 313 313 313 313 313 313 313 313 313 313 312 310 306 302 295 291
Wind_Speed
14 14 12 11 10 11 11 9 10 11 11 11 11 12 12 11 11 12 13 14 13 14 15 16 16 17 17 17 17 17 16 17 17 16 15 13 12 12 12 12 13 13 13
20 15 12 12 11 10 11 10 11 9 9 9 11 11 10 9 8 7 7 13 12 12 13 14 15 15 15 14 14 13 14 15 15 15 13 12 11 11 10 10 11 12 12
19 16 13 12 12 11 11 10 10 7 8 9 8 8 8 8 9 9 8 11 11 11 11 11 11 11 12 12 12 12 12 12 14 16 15 11 11 10 10 10 9 10 11
20 17 15 13 11 12 10 10 11 8 6 8 7 7 6 6 6 7 7 6 9 9 9 9 9 8 9 9 10 9 9 9 10 13 14 13 10 8 8 8 8 8 9
19 17 15 13 12 11 10 9 10 10 7 7 7 7 6 7 6 5 7 7 6 6 7 7 6 6 5 6 6 7 8 6 7 9 12 13 12 9 8 6 6 7 9
18 16 14 13 12 10 9 9 10 10 8 5 7 6 5 5 4 4 5 5 5 5 4 4 4 4 6 4 5 5 6 5 5 6 8 9 11 8 7 5 4 5 5
18 15 14 12 11 10 8 8 8 9 7 4 3 4 4 3 2 3 3 3 5 2 1 2 4 4 3 4 1 3 4 5 6 6 5 6 7 6 7 6 3 3 1
16 15 14 13 11 10 8 7 7 6 6 6 5 3 2 3 2 0 1 2 3 3 2 4 4 4 3 1 2 2 4 5 5 6 5 5 6 5 6 8 6 3 3
15 14 12 13 12 10 9 7 6 5 5 5 4 5 4 4 4 3 1 1 2 3 4 6 6 6 5 5 5 5 5 7 7 7 6 6 6 6 5 7 8 6 5
15 13 11 12 13 11 9 8 6 6 5 5 5 5 6 6 7 6 5 4 4 3 4 5 6 6 6 6 8 9 9 9 10 9 8 8 8 8 7 7 8 7 6
16 14 12 12 12 12 10 9 8 7 7 6 6 6 7 7 8 8 7 7 7 7 8 8 9 9 9 9 9 10 11 11 11 11 11 10 9 9 8 9 9 9 7
17 16 14 12 11 12 10 10 9 8 7 7 7 7 8 8 8 9 9 9 10 10 11 11 11 11 12 12 12 11 12 12 12 11 11 10 10 10 9 11 11 10 10
18 16 15 14 12 12 11 10 10 10 10 9 10 9 7 7 8 9 10 10 11 11 12 13 13 13 13 14 13 12 12 11 11 10 10 10 11 11 12 11 12 12 12
19 18 16 16 16 15 13 13 11 12 12 12 11 11 10 10 9 10 9 9 10 11 12 13 14 14 14 14 14 14 13 13 13 12 12 11 12 13 14 13 14 14 15
20 18 18 17 17 16 16 14 15 14 15 14 14 13 12 12 12 10 10 11 12 11 12 13 13 13 14 14 14 15 15 15 15 15 15 14 14 15 16 16 16 16 17
20 20 18 19 18 18 18 17 17 16 16 17 17 17 16 15 14 14 13 12 11 13 13 13 13 13 13 14 14 14 15 15 15 15 15 15 14 14 15 16 17 17 17
22 22 22 20 21 20 19 18 19 20 21 21 21 18 18 18 17 16 15 15 15 13 14 15 15 15 15 15 17 16 16 16 16 15 15 15 15 15 17 17 19 19 19
20 20 19 18 18 19 18 18 19 20 22 24 24 22 20 19 17 16 17 16 16 14 14 16 17 17 18 18 18 18 18 18 18 18 19 20 19 19 20 19 19 18 18
21 20 21 18 17 16 15 15 15 16 18 19 20 21 22 21 18 15 16 14 13 12 13 15 16 18 20 20 20 19 19 20 21 20 21 21 20 20 21 19 18 18 14
19 20 20 19 17 15 14 14 15 17 17 16 16 16 16 18 18 17 13 12 9 8 9 10 13 15 15 16 15 17 21 22 22 21 19 19 19 18 15 14 13 12 12
20 22 23 20 16 13 12 13 12 13 13 13 13 13 14 13 14 15 15 12 7 8 12 13 12 12 14 15 12 16 16 17 19 18 14 13 10 9 9 9 10 11 11
24 24 21 18 16 13 12 9 8 7 7 8 7 7 8 9 10 11 12 10 7 9 10 10 10 12 12 9 4 3 4 6 4 2 4 3 4 4 8 8 8 8 9
25 24 20 17 14 12 11 9 10 9 8 6 7 7 7 9 11 11 9 7 8 11 11 7 6 6 7 9 7 5 2 3 5 3 2 1 4 7 8 7 8 9 10
27 21 18 16 14 12 11 11 13 15 11 8 8 8 8 9 8 7 6 5 4 5 5 6 7 8 8 10 10 8 12 7 2 3 1 1 3 7 8 9 10 10 10
26 22 18 15 13 12 11 11 14 16 13 12 12 10 9 7 6 4 3 4 5 6 6 7 7 9 9 8 6 5 6 7 8 5 3 3 3 8 7 8 9 11 13
24 22 19 16 13 10 10 10 12 16 17 16 13 11 8 6 4 3 4 4 5 5 6 7 7 7 7 8 7 7 6 4 3 2 2 2 4 3 5 7 11 14 16
Wind_Direction
172 151 149 140 129 137 132 119 107 101 97 101 106 100 99 96 89 92 80 74 78 77 79 83 86 83 82 82 78 73 75 71 64 59 61 65 65 66 65 70 72 71 65
153 153 156 145 134 136 140 132 113 97 105 109 104 102 95 90 81 63 86 72 73 76 76 77 82 81 79 75 73 68 72 64 54 49 52 65 64 64 62 63 64 68 65
151 153 158 150 146 144 142 136 119 89 104 119 118 111 100 93 84 74 89 82 70 76 81 79 82 83 79 75 68 65 66 56 52 48 42 58 65 57 59 60 63 64 62
153 159 158 154 147 144 144 148 141 133 129 119 122 118 114 111 99 87 95 81 86 83 83 76 73 84 81 71 65 57 53 50 52 42 43 45 54 55 48 59 57 62 60
159 160 158 155 149 143 136 143 152 145 138 121 134 129 111 112 114 111 97 96 97 84 90 73 62 67 68 73 64 55 61 64 51 41 43 38 46 50 48 63 64 95 78
162 162 160 159 156 153 142 137 146 153 150 124 134 139 136 124 108 113 144 136 125 95 84 47 28 32 46 60 59 50 49 43 17 19 31 37 33 38 44 59 58 70 80
165 167 170 167 165 163 154 147 147 156 153 154 135 158 154 159 134 93 167 166 147 155 90 358 355 348 54 68 47 24 29 24 13 8 358 15 27 17 23 26 30 36 101
163 168 177 179 176 174 169 165 162 167 173 182 192 209 194 201 203 170 158 220 212 242 278 318 337 331 296 311 332 346 349 348 344 350 350 339 354 358 349 2 0 349 334
173 172 180 188 188 187 183 182 183 184 189 197 204 221 235 241 242 252 274 267 257 261 271 304 326 327 299 284 290 299 309 317 322 317 319 329 323 325 315 333 346 335 321
182 185 188 193 197 198 199 199 203 205 209 222 231 237 233 246 247 253 256 258 262 274 285 305 315 320 321 300 290 288 288 293 302 308 308 310 319 315 295 298 326 330 313
188 195 195 201 204 207 210 213 218 221 225 234 247 250 249 256 245 247 253 257 262 268 274 282 293 299 304 305 307 301 297 296 295 297 297 299 294 315 294 286 292 316 318
196 200 204 205 206 205 210 212 215 220 222 243 264 262 256 255 252 254 257 261 264 269 273 276 281 288 292 300 304 307 305 301 298 296 296 307 295 295 297 283 285 287 306
208 209 211 212 213 213 213 217 221 228 226 232 250 260 270 261 257 259 258 262 268 270 279 276 277 282 289 295 301 302 304 309 314 307 301 299 301 296 297 282 287 283 285
213 218 219 220 221 223 224 227 233 235 236 240 247 253 253 257 265 273 274 279 281 279 282 280 277 280 285 291 296 299 300 301 304 307 305 301 298 297 295 285 280 281 281
220 221 223 226 229 231 233 235 240 243 244 251 248 254 253 254 251 256 268 272 278 284 290 289 285 283 286 290 292 295 297 300 299 297 297 297 294 294 294 293 282 279 280
224 227 228 230 233 236 240 243 249 252 254 254 256 256 255 256 261 258 263 268 275 284 284 285 288 287 288 290 291 295 299 302 305 301 302 300 302 304 297 294 289 282 281
229 234 234 236 233 235 240 246 253 258 258 257 258 261 260 259 262 268 266 271 276 282 287 283 281 282 285 286 286 290 293 294 294 296 295 293 297 295 298 290 290 292 292
235 224 220 221 221 226 235 244 251 256 256 256 256 257 259 261 264 264 266 267 271 271 275 285 282 278 281 282 284 286 286 286 286 290 291 291 292 290 293 298 298 298 296
225 219 209 206 208 217 229 243 255 259 257 257 256 254 253 254 257 256 263 266 264 272 281 283 282 280 282 280 284 289 288 289 289 287 285 286 291 298 301 297 307 315 326
225 216 211 211 216 226 243 258 265 266 261 253 250 250 250 248 248 248 252 262 260 268 287 291 287 286 283 287 292 289 289 288 289 287 288 289 290 298 308 312 321 332 340
219 212 212 213 218 229 247 263 272 264 253 246 245 244 242 241 240 242 243 226 245 282 297 296 297 294 286 287 284 292 289 290 283 284 291 296 306 311 332 350 357 354 356
214 209 209 214 222 236 250 253 237 228 223 225 223 218 216 212 206 204 210 225 247 280 279 280 277 285 283 295 293 326 320 326 336 32 330 319 336 8 10 10 13 15 16
210 207 209 214 224 236 244 234 213 196 183 170 161 165 172 181 186 195 203 220 255 269 275 285 313 305 293 304 312 280 272 253 329 307 268 63 23 12 22 37 47 47 47
210 206 210 214 223 232 233 221 213 208 193 195 179 156 156 164 174 183 191 215 245 261 271 288 286 296 300 291 301 272 266 269 297 304 4 349 58 55 68 74 71 63 50
207 203 205 212 218 223 218 212 207 208 202 181 169 161 155 155 160 173 209 239 255 266 279 286 285 273 269 269 268 273 263 256 245 235 261 287 81 74 77 86 73 55 40
198 197 200 203 207 210 204 196 194 196 183 173 170 170 165 164 175 208 236 253 265 273 277 276 276 271 263 254 255 252 257 236 249 217 267 303 316 72 90 85 62 41 31